[[{"header":{"parameterUnit":"m.s-1","parameterCategory":1,"la1":30.2992,"la2":30.254,"lo1":-89.0895,"lo2":-89.0443,"dy":0.0025,"dx":0.0025,"nx":19,"ny":19,"refTime":"2026-04-06T21:00:00:Z","depth":0,"parameterNumber":2,"parameterNumberName":"U-component_of_WINDS"},"data":[0,0,0,-2.3688,-2.369,-2.3778,-2.3778,-2.3911,-2.3913,0,0,0,0,0,0,0,0,0,0,0,-2.3672,-2.3673,-2.3687,-2.369,-2.3778,-2.3778,-2.3911,-2.3913,0,0,0,0,0,0,0,0,0,0,0,-2.3671,-2.3673,-2.3675,-2.369,-2.3778,-2.3778,-2.3911,-2.3837,0,0,0,0,0,0,0,0,0,0,-2.3748,-2.3744,-2.3673,-2.3675,-2.3691,-2.3778,-2.3778,-2.3834,-2.3842,-2.3879,0,-2.3914,0,-2.3915,-2.3923,-2.3923,0,0,0,-2.3683,-2.3737,-2.3751,-2.3675,-2.3692,-2.3778,-2.3736,-2.3838,-2.3848,-2.3891,-2.3916,-2.392,-2.3918,-2.3924,-2.3924,-2.4162,-2.4163,0,0,-2.3678,-2.3694,-2.3745,-2.3758,-2.3744,-2.3733,-2.3739,-2.3844,-2.3873,-2.3916,-2.3923,-2.392,-2.3925,-2.3926,-2.416,-2.4162,0,0,0,-2.3669,-2.3691,-2.3702,-2.3753,-2.3767,-2.3736,-2.3743,-2.3868,-2.387,-2.3924,-2.3921,-2.3926,-2.3927,-2.4159,-2.4161,-2.4251,0,0,0,-2.3665,-2.3686,-2.37,-2.3712,-2.3765,-2.3818,-2.3765,-2.3863,-2.3874,-2.3921,-2.3926,-2.3929,-2.4157,-2.416,-2.4245,-2.4292,0,0,0,-2.3663,-2.3685,-2.3702,-2.3712,-2.375,-2.3816,-2.3824,-2.3865,-2.3873,-2.3923,-2.3929,-2.4156,-2.4159,-2.4239,-2.4283,-2.4361,0,0,0,-2.3665,-2.378,-2.3703,-2.383,-2.375,-2.387,-2.3823,-2.3912,-2.3966,-2.3926,-2.4157,-2.4161,-2.4238,-2.4277,-2.4355,-2.4432,-2.4464,0,0,-2.382,-2.3799,-2.3872,-2.3806,-2.3944,-2.3855,-2.4006,-2.404,-2.403,-2.4119,-2.4124,-2.4247,-2.4282,-2.436,-2.4634,-2.466,0,0,0,-2.3927,-2.3981,-2.4013,-2.4064,-2.4092,-2.412,-2.4128,-2.4141,-2.4215,-2.4078,-2.4293,-2.4314,-2.4359,-2.4395,-2.4417,-2.4456,-2.4177,-2.4177,-2.4176,-2.4172,-2.4152,-2.4272,-2.4262,-2.4313,-2.4319,-2.4359,-2.4377,-2.4342,-2.4393,-2.4421,-2.459,-2.4633,-2.4649,-2.469,-2.4457,-2.4457,-2.4457,-2.4457,-2.4399,-2.4473,-2.4422,-2.4521,-2.4499,-2.4582,-2.4593,-2.4565,-2.4641,-2.4567,-2.4606,-2.4531,-2.4678,-2.4713,-2.4464,-2.4463,-2.4462,-2.4461,-2.4461,-2.4561,-2.4593,-2.4604,-2.4676,-2.4733,-2.4718,-2.4793,-2.477,-2.4748,-2.4786,-2.4814,-2.4813,-2.4811,-2.48,-2.4801,-2.4801,-2.4802,-2.4802,-2.4803,-2.4726,-2.4735,-2.4801,-2.4838,-2.4868,-2.4904,-2.4911,-2.494,-2.4967,-2.4944,-2.4944,-2.4906,-2.4695,-2.4644,-2.4812,-2.481,-2.4809,-2.4808,-2.4807,-2.497,-2.491,-2.5012,-2.5042,-2.5084,-2.5144,-2.5111,-2.5172,-2.5192,-2.5231,-2.5183,-2.5029,-2.5008,-2.499,-2.4948,-2.5185,-2.5185,-2.5185,-2.5185,-2.5109,-2.5094,-2.5193,-2.5242,-2.5287,-2.5267,-2.5385,-2.539,-2.5387,-2.5399,-2.536,-2.5302,-2.5284,-2.5273,-2.5249,-2.5211,-2.5508,-2.5509,-2.5509,-2.526,-2.5248,-2.5353,-2.5347,-2.5378,-2.5405,-2.5515,-2.5575,-2.5559,-2.5522,-2.5409,-2.5395,-2.53,-2.5269,-2.5234,-2.5198,-2.5125,0,0]},{"header":{"parameterUnit":"m.s-1","parameterCategory":1,"la1":30.2992,"la2":30.254,"lo1":-89.0895,"lo2":-89.0443,"dy":0.0025,"dx":0.0025,"nx":19,"ny":19,"refTime":"2026-04-06T21:00:00:Z","depth":0,"parameterNumber":3,"parameterNumberName":"V-component_of_WINDS"},"data":[0,0,0,-6.498,-6.4981,-6.5016,-6.5016,-6.509,-6.5091,0,0,0,0,0,0,0,0,0,0,0,-6.4987,-6.4988,-6.498,-6.4981,-6.5016,-6.5016,-6.509,-6.5091,0,0,0,0,0,0,0,0,0,0,0,-6.4986,-6.4988,-6.4989,-6.4981,-6.5016,-6.5016,-6.509,-6.5053,0,0,0,0,0,0,0,0,0,0,-6.5013,-6.5037,-6.4987,-6.4989,-6.4981,-6.5016,-6.5016,-6.505,-6.5055,-6.5086,0,-6.5119,0,-6.5106,-6.5098,-6.5098,0,0,0,-6.4968,-6.5034,-6.5027,-6.4989,-6.4982,-6.5016,-6.4997,-6.5053,-6.5058,-6.5092,-6.512,-6.5122,-6.5107,-6.5098,-6.5099,-6.5322,-6.5324,0,0,-6.4966,-6.5003,-6.5024,-6.5031,-6.5028,-6.4996,-6.4998,-6.5055,-6.5087,-6.512,-6.5123,-6.5109,-6.5099,-6.51,-6.5321,-6.5323,0,0,0,-6.4969,-6.5002,-6.4993,-6.5029,-6.5034,-6.4997,-6.5,-6.5085,-6.5079,-6.5123,-6.511,-6.51,-6.5101,-6.5319,-6.5322,-6.5439,0,0,0,-6.4967,-6.5004,-6.4993,-6.5016,-6.5033,-6.506,-6.5029,-6.5075,-6.508,-6.5109,-6.51,-6.5102,-6.5317,-6.532,-6.5432,-6.5489,0,0,0,-6.4978,-6.5005,-6.5016,-6.5018,-6.5035,-6.5058,-6.5055,-6.5075,-6.5073,-6.5098,-6.5102,-6.5316,-6.532,-6.5426,-6.5478,-6.5558,0,0,0,-6.5001,-6.5121,-6.5018,-6.5146,-6.5035,-6.5131,-6.5054,-6.5124,-6.516,-6.51,-6.5317,-6.5321,-6.5423,-6.5472,-6.5552,-6.5632,-6.567,0,0,-6.5172,-6.5143,-6.5215,-6.5124,-6.5248,-6.5122,-6.5263,-6.5261,-6.523,-6.5293,-6.5298,-6.5434,-6.5477,-6.5557,-6.5865,-6.5894,0,0,0,-6.5281,-6.5334,-6.5358,-6.5394,-6.5396,-6.5401,-6.5374,-6.5373,-6.5425,-6.527,-6.5484,-6.5508,-6.5553,-6.559,-6.5616,-6.5652,-6.534,-6.5339,-6.5339,-6.5577,-6.553,-6.5646,-6.5604,-6.564,-6.5609,-6.5634,-6.5627,-6.557,-6.5621,-6.564,-6.5833,-6.5877,-6.5896,-6.5934,-6.5679,-6.5679,-6.568,-6.568,-6.5824,-6.5891,-6.5811,-6.5895,-6.5844,-6.5914,-6.589,-6.5847,-6.5904,-6.5815,-6.5852,-6.5759,-6.593,-6.5961,-6.5688,-6.5687,-6.5686,-6.5685,-6.5684,-6.6013,-6.6037,-6.6033,-6.6079,-6.6119,-6.6071,-6.613,-6.6082,-6.6037,-6.6074,-6.6089,-6.6086,-6.6078,-6.6084,-6.6085,-6.6086,-6.6086,-6.6087,-6.6087,-6.6211,-6.6202,-6.6258,-6.6268,-6.6284,-6.6299,-6.6269,-6.6283,-6.6287,-6.6247,-6.6247,-6.6185,-6.5955,-6.5899,-6.6097,-6.6096,-6.6094,-6.6093,-6.6093,-6.6479,-6.641,-6.6496,-6.6512,-6.6519,-6.6562,-6.6499,-6.6533,-6.6538,-6.6568,-6.6497,-6.6335,-6.6302,-6.6281,-6.6234,-6.6507,-6.6507,-6.6507,-6.6507,-6.6638,-6.6616,-6.6692,-6.672,-6.6743,-6.6694,-6.6792,-6.677,-6.6736,-6.6736,-6.669,-6.6623,-6.6604,-6.6581,-6.6554,-6.6509,-6.6847,-6.6847,-6.6847,-6.68,-6.6778,-6.6871,-6.6836,-6.6838,-6.684,-6.6931,-6.6967,-6.6914,-6.686,-6.6735,-6.6721,-6.6612,-6.658,-6.6523,-6.6483,-6.6399,0,0]}]]